Regional Weather Roundup
Issued by NWS

Home | Current Version | Previous Version | Graphics & Text | Print | Product List | Glossary On
Versions: 1 2 3 4 5 6 7 8 9 10 11 12 13 14 15 16 17 18 19 20 21 22 23 24 25 26 27
000
ASUS45 KCYS 180210
RWRWY

WYOMING REGIONAL WEATHER ROUNDUP
NATIONAL WEATHER SERVICE CHEYENNE WY
800 PM MDT TUE OCT 17 2017

NOTE:  "FAIR" INDICATES FEW OR NO CLOUDS BELOW 12,000 FEET
WITH NO SIGNIFICANT WEATHER AND/OR OBSTRUCTIONS TO VISIBILITY.

WYZ001-180300-
YELLOWSTONE NATIONAL PARK

CITY           SKY/WX    TMP DP  RH WIND       PRES   REMARKS
LK YELLOWSTONE NOT AVBL
W YELLOWSTONE  NOT AVBL

$$
WYZ002>013-054>058-071-098>099-180300-
NORTHERN WYOMING

CITY           SKY/WX    TMP DP  RH WIND       PRES   REMARKS
JACKSON        FAIR      53  15  22 S14       30.15R
CODY           FAIR      59  18  20 VRB5      29.95S
GREYBULL       FAIR      60  22  23 S7        29.88S
WORLAND        FAIR      60  25  26 S9        29.89S
SHERIDAN       FAIR      65  20  17 VRB6      29.82S
BUFFALO        FAIR      65  13  13 S7        29.90S
GILLETTE       FAIR      64  16  15 SW21G28   29.87S
HULETT         FAIR      55  25  30 S8        29.88S
NEWCASTLE      FAIR      52  23  32 E5        29.92F

$$
WYZ014>020-022>026-101>103-180300-
CENTRAL WYOMING

CITY           SKY/WX    TMP DP  RH WIND       PRES   REMARKS
BIG PINEY      FAIR      40  10  29 NW6       30.21R
PINEDALE       FAIR      43  12  28 N3        30.21R
DUBOIS         FAIR      50   9  18 W17G23    30.11S
LANDER         FAIR      59  15  18 SW8       30.00S
RIVERTON       FAIR      57  21  24 SW9       30.02R
CASPER         FAIR      55  16  21 SW12      30.02R
DOUGLAS        FAIR      58  16  19 W3        29.99S

$$
WYZ021-027>030-104>119-180300-
SOUTHERN WYOMING

CITY           SKY/WX    TMP DP  RH WIND       PRES   REMARKS
EVANSTON       FAIR      52   5  15 W9        30.23S
KEMMERER       FAIR      50   3  14 W10       30.23R
FORT BRIDGER   FAIR      53   2  12 W9        30.24S
ROCK SPRINGS   FAIR      54   8  16 SW9       30.20R
DIXON          FAIR      43  12  28 CALM      30.24S
RAWLINS        FAIR      54   8  16 SW7       30.18R
SARATOGA       FAIR      46  10  23 CALM      30.20S
LARAMIE        FAIR      45  15  30 W6        30.18S
CHEYENNE       FAIR      51  21  30 W10       30.12S
TORRINGTON     FAIR      61  16  17 W8        29.97R
PINE BLUFFS    FAIR      48  23  37 SW9       30.08S

$$




USA.gov is the U.S. government's official web portal to all federal, state and local government web resources and services.